QPF
0.00 0.00 0.00 0.00 0.00 0.00 0.00 0.00 0.00 0.00 0.00 0.00 0.00 0.00 0.00 0.00 0.00 0.00 0.00 0.00 0.00 0.00 0.00 0.00 0.00 0.00 0.00 0.00 0.01 0.01 0.01 0.01 0.01 0.01 0.01 0.01 0.01 0.01 0.01 0.01 0.02 0.04 0.04
0.00 0.00 0.00 0.00 0.00 0.00 0.00 0.00 0.00 0.00 0.00 0.00 0.00 0.00 0.00 0.00 0.00 0.00 0.00 0.00 0.00 0.00 0.00 0.00 0.00 0.00 0.01 0.00 0.00 0.01 0.01 0.01 0.01 0.01 0.01 0.01 0.01 0.02 0.01 0.01 0.01 0.02 0.04
0.00 0.00 0.00 0.00 0.00 0.00 0.00 0.00 0.00 0.00 0.00 0.00 0.00 0.00 0.00 0.00 0.00 0.00 0.00 0.00 0.00 0.00 0.00 0.00 0.00 0.00 0.01 0.01 0.01 0.01 0.00 0.00 0.01 0.01 0.01 0.01 0.01 0.01 0.02 0.01 0.01 0.02 0.02
0.00 0.00 0.00 0.00 0.00 0.00 0.00 0.00 0.00 0.00 0.00 0.00 0.00 0.00 0.00 0.00 0.00 0.00 0.00 0.00 0.00 0.00 0.00 0.00 0.00 0.00 0.01 0.01 0.01 0.01 0.01 0.01 0.01 0.01 0.00 0.01 0.01 0.01 0.02 0.02 0.02 0.02 0.01
0.00 0.00 0.00 0.00 0.00 0.00 0.00 0.00 0.00 0.00 0.00 0.00 0.00 0.00 0.00 0.00 0.00 0.00 0.00 0.00 0.00 0.00 0.00 0.00 0.00 0.00 0.00 0.00 0.00 0.01 0.01 0.01 0.01 0.01 0.01 0.01 0.01 0.02 0.02 0.02 0.02 0.02 0.02
0.00 0.00 0.01 0.00 0.00 0.00 0.00 0.00 0.00 0.00 0.00 0.00 0.00 0.00 0.00 0.00 0.00 0.00 0.00 0.00 0.00 0.00 0.00 0.00 0.00 0.00 0.00 0.00 0.00 0.00 0.01 0.01 0.02 0.02 0.02 0.02 0.02 0.02 0.03 0.02 0.02 0.02 0.02
0.00 0.00 0.00 0.00 0.00 0.00 0.00 0.00 0.00 0.00 0.00 0.00 0.00 0.00 0.00 0.00 0.00 0.00 0.00 0.00 0.00 0.00 0.01 0.01 0.00 0.00 0.00 0.00 0.00 0.00 0.00 0.00 0.00 0.01 0.02 0.02 0.02 0.03 0.04 0.03 0.03 0.03 0.03
0.00 0.00 0.00 0.00 0.00 0.00 0.00 0.00 0.00 0.00 0.00 0.00 0.00 0.00 0.00 0.00 0.00 0.00 0.00 0.00 0.00 0.00 0.00 0.01 0.00 0.00 0.00 0.00 0.00 0.01 0.01 0.01 0.01 0.01 0.02 0.02 0.03 0.04 0.05 0.04 0.04 0.03 0.02
0.00 0.00 0.00 0.00 0.00 0.00 0.00 0.00 0.00 0.00 0.00 0.00 0.00 0.00 0.00 0.00 0.00 0.00 0.00 0.00 0.00 0.00 0.00 0.00 0.00 0.00 0.00 0.00 0.00 0.00 0.01 0.01 0.01 0.01 0.01 0.01 0.01 0.01 0.01 0.02 0.03 0.03 0.02
0.00 0.00 0.00 0.00 0.00 0.00 0.00 0.00 0.00 0.00 0.00 0.00 0.00 0.00 0.00 0.00 0.00 0.00 0.00 0.00 0.00 0.00 0.01 0.01 0.00 0.00 0.00 0.00 0.00 0.01 0.01 0.01 0.02 0.02 0.02 0.01 0.01 0.01 0.00 0.00 0.02 0.03 0.03
0.01 0.00 0.00 0.00 0.00 0.00 0.00 0.00 0.00 0.00 0.00 0.00 0.00 0.00 0.00 0.00 0.00 0.00 0.00 0.00 0.00 0.01 0.01 0.01 0.01 0.00 0.00 0.00 0.00 0.00 0.01 0.01 0.02 0.02 0.02 0.02 0.02 0.02 0.02 0.02 0.02 0.03 0.03
0.00 0.00 0.00 0.00 0.00 0.00 0.00 0.00 0.00 0.00 0.00 0.00 0.00 0.00 0.00 0.00 0.00 0.00 0.00 0.00 0.00 0.00 0.00 0.01 0.01 0.00 0.00 0.00 0.00 0.00 0.00 0.00 0.00 0.01 0.02 0.02 0.02 0.02 0.03 0.03 0.03 0.03 0.03
0.00 0.00 0.00 0.00 0.00 0.00 0.00 0.00 0.00 0.00 0.00 0.00 0.00 0.00 0.00 0.00 0.00 0.00 0.00 0.00 0.00 0.00 0.00 0.00 0.00 0.00 0.00 0.00 0.00 0.00 0.00 0.00 0.01 0.01 0.02 0.02 0.03 0.03 0.03 0.03 0.04 0.04 0.04
0.01 0.01 0.01 0.01 0.01 0.00 0.00 0.00 0.00 0.00 0.00 0.00 0.00 0.00 0.00 0.00 0.00 0.00 0.00 0.00 0.00 0.00 0.00 0.00 0.00 0.00 0.00 0.00 0.00 0.01 0.01 0.01 0.01 0.01 0.02 0.02 0.03 0.03 0.03 0.03 0.04 0.04 0.04
0.01 0.01 0.01 0.01 0.01 0.00 0.00 0.00 0.00 0.00 0.00 0.00 0.00 0.00 0.00 0.00 0.00 0.00 0.00 0.00 0.00 0.00 0.00 0.00 0.00 0.00 0.00 0.01 0.01 0.02 0.02 0.01 0.01 0.01 0.02 0.02 0.03 0.03 0.02 0.03 0.04 0.04 0.04
0.00 0.00 0.01 0.01 0.00 0.00 0.00 0.00 0.00 0.00 0.00 0.00 0.00 0.00 0.00 0.00 0.00 0.00 0.00 0.00 0.00 0.00 0.00 0.00 0.00 0.01 0.01 0.01 0.01 0.01 0.02 0.02 0.02 0.03 0.03 0.03 0.03 0.03 0.03 0.03 0.03 0.03 0.03
0.00 0.00 0.01 0.00 0.00 0.00 0.00 0.00 0.00 0.00 0.00 0.00 0.00 0.00 0.00 0.00 0.00 0.00 0.00 0.00 0.00 0.00 0.00 0.00 0.00 0.01 0.01 0.01 0.01 0.01 0.01 0.02 0.03 0.03 0.03 0.03 0.03 0.03 0.03 0.03 0.03 0.03 0.03
0.01 0.01 0.01 0.01 0.01 0.00 0.00 0.00 0.00 0.00 0.00 0.00 0.00 0.00 0.00 0.00 0.00 0.00 0.00 0.00 0.00 0.00 0.00 0.00 0.00 0.01 0.01 0.01 0.01 0.02 0.02 0.02 0.02 0.03 0.04 0.04 0.04 0.04 0.04 0.03 0.04 0.04 0.04
0.01 0.01 0.01 0.00 0.00 0.00 0.00 0.00 0.00 0.00 0.00 0.00 0.00 0.00 0.00 0.00 0.00 0.00 0.00 0.00 0.00 0.00 0.01 0.01 0.01 0.01 0.01 0.02 0.02 0.02 0.02 0.03 0.04 0.05 0.06 0.06 0.05 0.05 0.05 0.05 0.06 0.06 0.04
0.00 0.00 0.00 0.00 0.00 0.00 0.00 0.00 0.00 0.00 0.01 0.00 0.00 0.00 0.00 0.00 0.00 0.00 0.00 0.00 0.01 0.01 0.01 0.02 0.02 0.02 0.02 0.03 0.03 0.04 0.04 0.04 0.05 0.06 0.06 0.06 0.05 0.05 0.05 0.06 0.07 0.07 0.06
0.01 0.00 0.00 0.00 0.00 0.00 0.00 0.00 0.00 0.00 0.00 0.00 0.00 0.00 0.00 0.00 0.00 0.00 0.01 0.01 0.02 0.02 0.02 0.03 0.02 0.03 0.03 0.03 0.04 0.04 0.04 0.04 0.05 0.05 0.06 0.06 0.06 0.05 0.05 0.05 0.06 0.06 0.07
0.00 0.00 0.00 0.00 0.00 0.00 0.00 0.00 0.00 0.00 0.00 0.00 0.00 0.00 0.00 0.00 0.00 0.01 0.01 0.01 0.02 0.02 0.03 0.03 0.03 0.03 0.03 0.04 0.04 0.05 0.05 0.04 0.04 0.05 0.06 0.05 0.05 0.05 0.05 0.05 0.05 0.06 0.07
0.00 0.00 0.00 0.00 0.00 0.00 0.00 0.00 0.01 0.01 0.00 0.00 0.00 0.00 0.00 0.01 0.01 0.01 0.01 0.01 0.01 0.01 0.02 0.03 0.04 0.05 0.05 0.05 0.05 0.05 0.05 0.06 0.06 0.05 0.05 0.05 0.04 0.04 0.04 0.04 0.04 0.05 0.06
0.00 0.00 0.00 0.00 0.00 0.00 0.00 0.00 0.00 0.00 0.00 0.00 0.00 0.01 0.01 0.01 0.02 0.02 0.01 0.01 0.01 0.02 0.03 0.04 0.05 0.06 0.07 0.07 0.07 0.07 0.06 0.06 0.05 0.04 0.04 0.04 0.03 0.03 0.04 0.03 0.03 0.04 0.06
0.00 0.00 0.00 0.00 0.00 0.00 0.00 0.00 0.00 0.00 0.00 0.00 0.01 0.01 0.02 0.02 0.02 0.02 0.02 0.03 0.02 0.03 0.03 0.04 0.05 0.06 0.07 0.07 0.07 0.06 0.06 0.05 0.05 0.04 0.03 0.03 0.03 0.03 0.03 0.03 0.04 0.05 0.07
0.00 0.00 0.00 0.00 0.00 0.00 0.01 0.01 0.01 0.01 0.01 0.01 0.01 0.02 0.02 0.02 0.03 0.03 0.03 0.03 0.03 0.03 0.03 0.04 0.05 0.06 0.06 0.06 0.06 0.05 0.04 0.03 0.03 0.02 0.01 0.01 0.02 0.03 0.03 0.03 0.04 0.05 0.07
MSLP
1017.78 1018.39 1018.90 1019.31 1019.60 1019.78 1019.87 1019.91 1019.92 1019.92 1019.94 1019.98 1020.04 1020.10 1020.16 1020.21 1020.25 1020.28 1020.31 1020.34 1020.39 1020.45 1020.51 1020.56 1020.58 1020.56 1020.48 1020.33 1020.12 1019.85 1019.54 1019.20 1018.86 1018.53 1018.21 1017.92 1017.65 1017.40 1017.18 1016.99 1016.83 1016.70 1016.63
1017.43 1018.04 1018.57 1018.99 1019.30 1019.51 1019.64 1019.72 1019.76 1019.80 1019.84 1019.89 1019.94 1019.99 1020.03 1020.06 1020.07 1020.07 1020.08 1020.10 1020.13 1020.18 1020.24 1020.29 1020.32 1020.31 1020.25 1020.12 1019.94 1019.70 1019.42 1019.12 1018.80 1018.49 1018.18 1017.89 1017.60 1017.32 1017.05 1016.80 1016.57 1016.36 1016.21
1017.10 1017.70 1018.21 1018.63 1018.95 1019.19 1019.35 1019.47 1019.56 1019.63 1019.71 1019.78 1019.84 1019.88 1019.91 1019.91 1019.90 1019.87 1019.85 1019.83 1019.84 1019.87 1019.91 1019.96 1019.99 1019.99 1019.94 1019.84 1019.69 1019.49 1019.25 1018.98 1018.70 1018.41 1018.12 1017.83 1017.53 1017.23 1016.91 1016.60 1016.30 1016.02 1015.78
1016.77 1017.35 1017.85 1018.26 1018.57 1018.82 1019.01 1019.16 1019.29 1019.41 1019.52 1019.62 1019.70 1019.75 1019.77 1019.76 1019.72 1019.66 1019.60 1019.56 1019.54 1019.54 1019.57 1019.60 1019.63 1019.64 1019.62 1019.55 1019.43 1019.26 1019.06 1018.83 1018.58 1018.32 1018.04 1017.75 1017.44 1017.11 1016.76 1016.40 1016.04 1015.68 1015.36
1016.42 1016.98 1017.46 1017.85 1018.16 1018.41 1018.62 1018.80 1018.97 1019.13 1019.28 1019.41 1019.51 1019.57 1019.59 1019.56 1019.50 1019.42 1019.34 1019.27 1019.22 1019.21 1019.23 1019.26 1019.30 1019.32 1019.32 1019.27 1019.18 1019.05 1018.87 1018.67 1018.44 1018.18 1017.91 1017.62 1017.30 1016.96 1016.58 1016.18 1015.77 1015.35 1014.95
1016.03 1016.58 1017.04 1017.42 1017.72 1017.98 1018.19 1018.40 1018.59 1018.78 1018.95 1019.11 1019.22 1019.30 1019.32 1019.29 1019.22 1019.13 1019.03 1018.95 1018.90 1018.88 1018.90 1018.94 1018.99 1019.03 1019.04 1019.02 1018.95 1018.83 1018.67 1018.47 1018.25 1018.00 1017.72 1017.42 1017.10 1016.74 1016.35 1015.92 1015.47 1015.01 1014.56
1015.59 1016.13 1016.59 1016.96 1017.26 1017.51 1017.73 1017.94 1018.15 1018.35 1018.54 1018.70 1018.83 1018.91 1018.93 1018.91 1018.84 1018.75 1018.66 1018.59 1018.54 1018.54 1018.57 1018.62 1018.68 1018.74 1018.77 1018.75 1018.69 1018.58 1018.41 1018.21 1017.98 1017.71 1017.43 1017.12 1016.78 1016.41 1016.02 1015.59 1015.13 1014.65 1014.17
1015.10 1015.65 1016.11 1016.48 1016.78 1017.03 1017.25 1017.46 1017.66 1017.86 1018.04 1018.20 1018.33 1018.40 1018.43 1018.42 1018.36 1018.29 1018.22 1018.16 1018.14 1018.16 1018.20 1018.28 1018.35 1018.42 1018.45 1018.44 1018.37 1018.24 1018.06 1017.83 1017.57 1017.28 1016.98 1016.66 1016.31 1015.95 1015.56 1015.15 1014.70 1014.23 1013.75
1014.59 1015.16 1015.62 1016.00 1016.30 1016.54 1016.75 1016.95 1017.13 1017.31 1017.47 1017.61 1017.73 1017.80 1017.83 1017.82 1017.79 1017.74 1017.70 1017.67 1017.68 1017.72 1017.79 1017.87 1017.96 1018.02 1018.05 1018.01 1017.92 1017.77 1017.55 1017.29 1017.00 1016.69 1016.36 1016.02 1015.68 1015.34 1014.97 1014.58 1014.17 1013.73 1013.28
1014.09 1014.67 1015.15 1015.53 1015.83 1016.06 1016.26 1016.42 1016.58 1016.72 1016.86 1016.97 1017.07 1017.13 1017.16 1017.17 1017.16 1017.14 1017.12 1017.13 1017.16 1017.22 1017.30 1017.38 1017.46 1017.50 1017.50 1017.44 1017.31 1017.12 1016.87 1016.57 1016.25 1015.91 1015.57 1015.23 1014.90 1014.57 1014.24 1013.90 1013.54 1013.15 1012.74
1013.61 1014.20 1014.68 1015.07 1015.36 1015.58 1015.75 1015.89 1016.01 1016.11 1016.21 1016.30 1016.37 1016.43 1016.46 1016.48 1016.49 1016.50 1016.52 1016.55 1016.59 1016.66 1016.73 1016.80 1016.84 1016.85 1016.81 1016.70 1016.53 1016.29 1016.00 1015.68 1015.33 1014.98 1014.64 1014.31 1013.99 1013.70 1013.41 1013.12 1012.81 1012.48 1012.13
1013.14 1013.73 1014.21 1014.59 1014.88 1015.08 1015.23 1015.33 1015.41 1015.48 1015.54 1015.60 1015.66 1015.71 1015.76 1015.80 1015.83 1015.87 1015.90 1015.94 1015.99 1016.04 1016.08 1016.11 1016.11 1016.06 1015.96 1015.80 1015.58 1015.30 1014.99 1014.64 1014.29 1013.94 1013.61 1013.30 1013.02 1012.76 1012.51 1012.27 1012.02 1011.75 1011.45
1012.67 1013.24 1013.72 1014.08 1014.35 1014.53 1014.65 1014.73 1014.78 1014.82 1014.86 1014.90 1014.95 1015.01 1015.07 1015.13 1015.19 1015.24 1015.29 1015.33 1015.36 1015.37 1015.37 1015.33 1015.26 1015.14 1014.98 1014.76 1014.50 1014.19 1013.86 1013.52 1013.18 1012.85 1012.55 1012.27 1012.03 1011.80 1011.60 1011.39 1011.18 1010.95 1010.70
1012.17 1012.71 1013.16 1013.51 1013.75 1013.92 1014.01 1014.07 1014.10 1014.12 1014.14 1014.18 1014.24 1014.31 1014.39 1014.47 1014.55 1014.61 1014.66 1014.69 1014.69 1014.65 1014.58 1014.48 1014.32 1014.13 1013.90 1013.63 1013.33 1013.01 1012.68 1012.36 1012.05 1011.76 1011.50 1011.26 1011.06 1010.87 1010.69 1010.51 1010.32 1010.11 1009.88
1011.62 1012.12 1012.53 1012.85 1013.07 1013.22 1013.30 1013.34 1013.35 1013.37 1013.39 1013.44 1013.51 1013.59 1013.69 1013.80 1013.89 1013.96 1014.00 1014.00 1013.96 1013.87 1013.73 1013.54 1013.31 1013.05 1012.75 1012.44 1012.12 1011.80 1011.49 1011.20 1010.93 1010.70 1010.49 1010.30 1010.13 1009.97 1009.80 1009.63 1009.44 1009.23 1008.99
1011.03 1011.48 1011.85 1012.13 1012.33 1012.45 1012.52 1012.55 1012.56 1012.58 1012.61 1012.67 1012.75 1012.85 1012.97 1013.08 1013.18 1013.25 1013.27 1013.24 1013.16 1013.01 1012.80 1012.54 1012.24 1011.91 1011.57 1011.22 1010.89 1010.59 1010.31 1010.06 1009.85 1009.67 1009.52 1009.37 1009.23 1009.09 1008.93 1008.75 1008.54 1008.31 1008.05
1010.44 1010.83 1011.15 1011.39 1011.56 1011.66 1011.72 1011.74 1011.76 1011.77 1011.81 1011.87 1011.95 1012.06 1012.18 1012.30 1012.39 1012.45 1012.45 1012.39 1012.25 1012.05 1011.78 1011.46 1011.11 1010.73 1010.36 1010.00 1009.67 1009.39 1009.15 1008.96 1008.80 1008.67 1008.57 1008.46 1008.35 1008.21 1008.04 1007.84 1007.61 1007.35 1007.06
1009.92 1010.23 1010.49 1010.69 1010.82 1010.91 1010.95 1010.96 1010.97 1010.98 1011.00 1011.06 1011.14 1011.24 1011.34 1011.44 1011.52 1011.55 1011.52 1011.42 1011.24 1010.99 1010.68 1010.32 1009.92 1009.52 1009.13 1008.78 1008.46 1008.21 1008.01 1007.86 1007.75 1007.68 1007.61 1007.53 1007.43 1007.30 1007.12 1006.90 1006.64 1006.36 1006.05
1009.52 1009.76 1009.95 1010.09 1010.18 1010.23 1010.25 1010.24 1010.23 1010.22 1010.23 1010.26 1010.31 1010.38 1010.46 1010.52 1010.56 1010.55 1010.49 1010.35 1010.13 1009.85 1009.50 1009.12 1008.70 1008.29 1007.90 1007.55 1007.27 1007.04 1006.87 1006.77 1006.70 1006.65 1006.61 1006.56 1006.47 1006.34 1006.16 1005.93 1005.66 1005.35 1005.03
1009.30 1009.44 1009.55 1009.63 1009.67 1009.68 1009.66 1009.62 1009.57 1009.53 1009.50 1009.49 1009.50 1009.53 1009.55 1009.57 1009.56 1009.51 1009.40 1009.22 1008.97 1008.66 1008.29 1007.89 1007.47 1007.06 1006.68 1006.35 1006.08 1005.89 1005.75 1005.67 1005.63 1005.61 1005.59 1005.55 1005.47 1005.34 1005.16 1004.93 1004.67 1004.37 1004.06
1009.25 1009.29 1009.31 1009.31 1009.29 1009.24 1009.17 1009.09 1009.00 1008.92 1008.85 1008.79 1008.75 1008.71 1008.68 1008.64 1008.57 1008.46 1008.30 1008.09 1007.81 1007.47 1007.09 1006.69 1006.27 1005.87 1005.50 1005.19 1004.95 1004.77 1004.65 1004.59 1004.57 1004.57 1004.56 1004.53 1004.46 1004.34 1004.18 1003.96 1003.71 1003.44 1003.17
1009.34 1009.27 1009.19 1009.11 1009.01 1008.90 1008.78 1008.65 1008.52 1008.40 1008.28 1008.17 1008.07 1007.98 1007.89 1007.78 1007.66 1007.50 1007.29 1007.03 1006.72 1006.37 1005.98 1005.57 1005.15 1004.76 1004.41 1004.12 1003.88 1003.72 1003.62 1003.57 1003.56 1003.57 1003.57 1003.55 1003.49 1003.39 1003.24 1003.06 1002.84 1002.61 1002.38
1009.48 1009.30 1009.12 1008.95 1008.78 1008.62 1008.45 1008.28 1008.11 1007.95 1007.79 1007.65 1007.51 1007.37 1007.23 1007.08 1006.90 1006.69 1006.44 1006.14 1005.80 1005.42 1005.02 1004.60 1004.18 1003.80 1003.46 1003.17 1002.95 1002.80 1002.71 1002.67 1002.66 1002.68 1002.68 1002.67 1002.63 1002.55 1002.42 1002.27 1002.09 1001.90 1001.71
1009.58 1009.30 1009.03 1008.78 1008.55 1008.33 1008.13 1007.93 1007.75 1007.57 1007.40 1007.24 1007.09 1006.93 1006.76 1006.57 1006.35 1006.10 1005.81 1005.48 1005.10 1004.70 1004.27 1003.84 1003.42 1003.03 1002.68 1002.40 1002.19 1002.04 1001.96 1001.92 1001.92 1001.94 1001.95 1001.95 1001.92 1001.85 1001.75 1001.62 1001.47 1001.31 1001.17
1009.57 1009.20 1008.86 1008.56 1008.28 1008.03 1007.81 1007.61 1007.43 1007.27 1007.12 1006.97 1006.83 1006.67 1006.49 1006.29 1006.05 1005.77 1005.45 1005.08 1004.67 1004.23 1003.77 1003.31 1002.88 1002.47 1002.12 1001.84 1001.63 1001.48 1001.40 1001.37 1001.37 1001.39 1001.41 1001.41 1001.39 1001.33 1001.24 1001.12 1000.98 1000.84 1000.71
1009.41 1008.99 1008.61 1008.26 1007.97 1007.72 1007.51 1007.33 1007.19 1007.07 1006.96 1006.85 1006.74 1006.61 1006.45 1006.25 1006.00 1005.70 1005.35 1004.94 1004.49 1004.01 1003.52 1003.03 1002.56 1002.14 1001.78 1001.49 1001.27 1001.12 1001.04 1001.01 1001.02 1001.04 1001.05 1001.05 1001.03 1000.96 1000.87 1000.75 1000.60 1000.46 1000.32
Thickness
5720 5717 5714 5712 5709 5706 5703 5701 5698 5695 5692 5689 5686 5683 5680 5677 5674 5670 5669 5665 5661 5659 5656 5654 5650 5648 5648 5647 5646 5644 5643 5641 5639 5643 5645 5646 5642 5641 5643 5645 5648 5651 5656
5721 5717 5714 5711 5708 5706 5703 5700 5696 5693 5690 5687 5684 5680 5678 5675 5671 5668 5664 5662 5658 5655 5652 5649 5646 5645 5641 5639 5638 5637 5636 5634 5632 5632 5635 5636 5636 5635 5635 5637 5641 5646 5648
5723 5718 5714 5711 5708 5705 5702 5698 5695 5691 5688 5685 5681 5678 5675 5672 5668 5665 5661 5658 5655 5651 5648 5645 5642 5639 5635 5635 5631 5631 5631 5630 5627 5627 5628 5630 5630 5630 5629 5630 5634 5635 5639
5723 5719 5715 5711 5707 5704 5701 5697 5693 5689 5686 5682 5679 5676 5673 5669 5666 5662 5658 5654 5651 5648 5644 5641 5638 5635 5631 5628 5626 5623 5622 5621 5621 5620 5622 5624 5624 5625 5623 5623 5626 5630 5632
5722 5718 5714 5711 5707 5703 5699 5695 5691 5688 5685 5680 5677 5674 5670 5667 5664 5660 5655 5652 5648 5644 5641 5638 5635 5631 5626 5621 5620 5619 5616 5614 5615 5615 5616 5616 5617 5615 5616 5617 5618 5620 5623
5722 5718 5714 5710 5706 5701 5697 5693 5689 5685 5682 5678 5674 5671 5668 5666 5659 5652 5647 5647 5645 5641 5638 5635 5632 5628 5623 5615 5611 5608 5604 5604 5606 5605 5607 5607 5606 5607 5607 5606 5608 5610 5612
5722 5718 5714 5709 5704 5700 5696 5692 5687 5683 5679 5675 5672 5669 5665 5661 5654 5647 5642 5639 5640 5638 5635 5631 5629 5628 5620 5617 5612 5605 5601 5598 5594 5595 5597 5598 5599 5599 5597 5597 5598 5599 5601
5721 5717 5713 5708 5703 5699 5694 5690 5685 5681 5677 5673 5670 5667 5662 5659 5651 5644 5639 5636 5637 5635 5632 5628 5624 5620 5618 5611 5607 5605 5603 5601 5597 5592 5592 5592 5592 5590 5589 5588 5588 5591 5594
5720 5716 5712 5707 5702 5697 5692 5687 5683 5678 5674 5671 5668 5664 5659 5656 5649 5642 5634 5636 5636 5633 5629 5626 5621 5617 5611 5603 5599 5599 5598 5597 5595 5592 5588 5586 5583 5581 5579 5579 5582 5584 5589
5721 5716 5711 5705 5700 5695 5690 5685 5681 5676 5672 5668 5666 5662 5657 5653 5647 5639 5632 5633 5633 5631 5628 5624 5617 5611 5606 5598 5595 5594 5593 5592 5591 5589 5585 5582 5580 5579 5575 5573 5576 5578 5582
5720 5714 5708 5703 5697 5693 5687 5682 5678 5673 5669 5665 5662 5659 5655 5650 5645 5637 5629 5627 5628 5626 5623 5621 5618 5608 5600 5593 5588 5587 5587 5584 5582 5582 5582 5582 5581 5579 5577 5575 5573 5572 5575
5717 5710 5704 5699 5695 5691 5684 5679 5675 5670 5665 5661 5657 5654 5653 5649 5642 5636 5628 5621 5617 5617 5616 5615 5612 5602 5595 5589 5585 5583 5579 5573 5575 5578 5578 5578 5578 5576 5576 5574 5571 5569 5570
5711 5705 5700 5695 5690 5686 5681 5676 5671 5666 5663 5661 5657 5654 5651 5649 5643 5633 5626 5619 5613 5609 5611 5608 5601 5595 5589 5587 5584 5578 5573 5572 5574 5574 5575 5575 5574 5573 5570 5568 5567 5565 5565
5705 5699 5695 5690 5686 5681 5677 5674 5670 5666 5661 5658 5654 5650 5647 5644 5640 5634 5628 5621 5611 5607 5605 5602 5595 5590 5585 5582 5581 5579 5575 5573 5572 5570 5570 5570 5569 5567 5564 5563 5562 5561 5562
5699 5695 5691 5687 5683 5678 5674 5671 5667 5662 5658 5651 5649 5645 5640 5637 5631 5621 5615 5614 5610 5605 5597 5596 5596 5594 5591 5587 5584 5581 5576 5572 5569 5566 5564 5563 5562 5560 5559 5559 5558 5557 5557
5693 5689 5687 5683 5678 5674 5670 5665 5659 5653 5648 5642 5636 5631 5631 5625 5618 5611 5605 5599 5593 5587 5585 5591 5591 5590 5587 5584 5580 5577 5573 5569 5566 5562 5560 5558 5557 5556 5556 5556 5555 5553 5554
5688 5684 5681 5677 5673 5668 5664 5659 5654 5648 5640 5635 5630 5624 5618 5614 5609 5603 5597 5591 5586 5579 5581 5587 5587 5585 5582 5579 5576 5572 5570 5566 5562 5559 5556 5555 5553 5552 5551 5551 5551 5550 5551
5679 5674 5671 5667 5665 5661 5657 5653 5648 5644 5640 5637 5629 5620 5614 5608 5602 5597 5590 5584 5588 5584 5585 5585 5583 5580 5577 5573 5570 5567 5565 5562 5558 5555 5553 5552 5550 5549 5549 5548 5549 5548 5549
5671 5668 5663 5661 5657 5654 5650 5646 5642 5637 5633 5630 5627 5620 5610 5604 5597 5592 5585 5585 5588 5587 5585 5582 5578 5575 5571 5568 5564 5561 5559 5556 5554 5552 5551 5550 5549 5547 5547 5547 5547 5546 5544
5661 5655 5652 5652 5649 5646 5642 5637 5633 5628 5624 5620 5617 5613 5608 5602 5598 5594 5587 5586 5582 5580 5577 5574 5571 5567 5564 5561 5557 5554 5553 5552 5550 5549 5548 5548 5547 5545 5545 5544 5544 5544 5544
5654 5648 5640 5641 5640 5636 5631 5627 5623 5619 5615 5612 5608 5603 5592 5590 5589 5587 5583 5579 5575 5571 5567 5564 5561 5559 5557 5553 5551 5548 5547 5547 5546 5545 5545 5543 5542 5542 5541 5541 5541 5541 5542
5642 5639 5634 5631 5628 5624 5619 5615 5612 5609 5605 5601 5598 5593 5583 5580 5580 5577 5573 5569 5566 5562 5558 5555 5552 5550 5548 5546 5544 5543 5542 5541 5541 5540 5539 5538 5537 5537 5537 5537 5538 5538 5538
5629 5626 5623 5619 5616 5609 5607 5605 5602 5598 5594 5590 5586 5582 5578 5574 5571 5566 5563 5560 5557 5554 5551 5547 5544 5543 5541 5538 5537 5536 5535 5535 5534 5534 5533 5532 5532 5533 5533 5533 5534 5534 5535
5618 5614 5611 5607 5604 5601 5597 5593 5590 5587 5583 5579 5575 5571 5567 5563 5559 5555 5552 5550 5547 5545 5542 5538 5535 5534 5532 5529 5528 5528 5528 5526 5524 5525 5526 5526 5528 5529 5529 5530 5531 5532 5532
5605 5602 5599 5595 5592 5588 5585 5581 5578 5574 5570 5566 5562 5558 5555 5551 5549 5546 5543 5539 5537 5534 5532 5530 5528 5526 5524 5523 5521 5521 5518 5516 5515 5515 5517 5520 5522 5524 5525 5526 5528 5528 5528
5592 5589 5586 5583 5579 5576 5572 5569 5565 5561 5557 5553 5550 5546 5543 5540 5537 5534 5532 5529 5527 5526 5524 5522 5520 5518 5517 5516 5515 5512 5510 5509 5508 5508 5509 5512 5517 5520 5522 5523 5524 5524 5525